Time,TemperatureF,DewpointF,PressureIn,WindDirection,WindDirectionDegrees,WindSpeedMPH,WindSpeedGustMPH,Humidity,HourlyPrecipIn,Conditions,Clouds,dailyrainin,SoftwareType,DateUTC
2013-02-15 00:02:00,34.0,23.0,29.93,South,169,0.0,0.0,65,0.00,,,0.13,,2013-02-15 05:02:00,
2013-02-15 00:12:00,34.0,23.0,29.93,South,169,0.0,0.0,65,0.00,,,0.13,,2013-02-15 05:12:00,
2013-02-15 00:22:00,34.0,24.0,29.93,South,169,0.0,0.0,67,0.00,,,0.13,,2013-02-15 05:22:00,
2013-02-15 00:32:00,33.0,23.0,29.93,South,169,0.0,1.0,67,0.00,,,0.13,,2013-02-15 05:32:00,
2013-02-15 00:42:00,33.0,23.0,29.93,South,169,0.0,1.0,67,0.00,,,0.13,,2013-02-15 05:42:00,
2013-02-15 00:52:00,33.0,24.0,29.93,South,169,0.0,1.0,69,0.00,,,0.13,,2013-02-15 05:52:00,
2013-02-15 01:02:00,33.0,24.0,29.93,South,169,0.0,2.0,70,0.00,,,0.13,,2013-02-15 06:02:00,
2013-02-15 01:11:00,34.0,25.0,29.93,South,169,0.0,1.0,69,0.00,,,0.13,,2013-02-15 06:11:00,
2013-02-15 01:22:00,34.0,25.0,29.93,South,169,0.0,1.0,69,0.00,,,0.13,,2013-02-15 06:22:00,
2013-02-15 01:32:00,34.0,25.0,29.94,South,169,2.0,4.0,69,0.00,,,0.13,,2013-02-15 06:32:00,
2013-02-15 01:42:00,34.0,25.0,29.94,South,169,2.0,4.0,69,0.00,,,0.13,,2013-02-15 06:42:00,
2013-02-15 01:52:00,34.0,25.0,29.93,South,169,2.0,3.0,69,0.00,,,0.13,,2013-02-15 06:52:00,
2013-02-15 02:01:00,34.0,25.0,29.93,South,169,0.0,2.0,68,0.00,,,0.13,,2013-02-15 07:01:00,
2013-02-15 02:11:00,34.0,25.0,29.93,South,169,0.0,2.0,68,0.00,,,0.13,,2013-02-15 07:11:00,
2013-02-15 02:21:00,34.0,25.0,29.93,South,169,0.0,1.0,68,0.00,,,0.13,,2013-02-15 07:21:00,
2013-02-15 02:32:00,34.0,25.0,29.93,South,169,0.0,2.0,68,0.00,,,0.13,,2013-02-15 07:32:00,
2013-02-15 02:42:00,34.0,25.0,29.93,South,169,0.0,2.0,68,0.00,,,0.13,,2013-02-15 07:42:00,
2013-02-15 02:52:00,35.0,26.0,29.93,South,169,0.0,1.0,68,0.00,,,0.13,,2013-02-15 07:52:00,
2013-02-15 03:01:00,36.0,26.0,29.93,South,169,0.0,2.0,66,0.00,,,0.13,,2013-02-15 08:01:00,
2013-02-15 03:11:00,36.0,26.0,29.93,South,169,0.0,2.0,66,0.00,,,0.13,,2013-02-15 08:11:00,
2013-02-15 03:21:00,37.0,26.0,29.93,South,169,0.0,3.0,64,0.00,,,0.13,,2013-02-15 08:21:00,
2013-02-15 03:32:00,36.0,25.0,29.93,South,169,0.0,2.0,64,0.00,,,0.13,,2013-02-15 08:32:00,
2013-02-15 03:42:00,36.0,25.0,29.93,South,169,0.0,2.0,64,0.00,,,0.13,,2013-02-15 08:42:00,
2013-02-15 03:53:00,36.0,25.0,29.93,South,169,0.0,0.0,64,0.00,,,0.13,,2013-02-15 08:53:00,
2013-02-15 04:02:00,34.0,24.0,29.93,South,169,0.0,0.0,66,0.00,,,0.13,,2013-02-15 09:02:00,
2013-02-15 04:12:00,34.0,24.0,29.93,South,169,0.0,0.0,66,0.00,,,0.13,,2013-02-15 09:12:00,
2013-02-15 04:21:00,33.0,24.0,29.94,South,169,0.0,0.0,68,0.00,,,0.12,,2013-02-15 09:21:00,
2013-02-15 04:32:00,33.0,24.0,29.94,South,169,0.0,2.0,69,0.00,,,0.12,,2013-02-15 09:32:00,
2013-02-15 04:42:00,33.0,24.0,29.94,South,169,0.0,2.0,69,0.00,,,0.12,,2013-02-15 09:42:00,
2013-02-15 04:52:00,33.0,24.0,29.94,South,169,0.0,0.0,69,0.00,,,0.12,,2013-02-15 09:52:00,
2013-02-15 05:01:00,33.0,24.0,29.95,South,169,0.0,2.0,70,0.00,,,0.12,,2013-02-15 10:01:00,
2013-02-15 05:11:00,33.0,24.0,29.95,South,169,0.0,2.0,70,0.00,,,0.12,,2013-02-15 10:11:00,
2013-02-15 05:21:00,33.0,24.0,29.95,South,169,0.0,2.0,70,0.00,,,0.12,,2013-02-15 10:21:00,
2013-02-15 05:32:00,32.0,23.0,29.95,South,169,0.0,1.0,70,0.00,,,0.12,,2013-02-15 10:32:00,
2013-02-15 05:42:00,32.0,23.0,29.95,South,169,0.0,1.0,70,0.00,,,0.12,,2013-02-15 10:42:00,
2013-02-15 05:52:00,32.0,24.0,29.95,South,169,0.0,2.0,71,0.00,,,0.12,,2013-02-15 10:52:00,
2013-02-15 06:01:00,33.0,25.0,29.95,South,169,1.0,3.0,71,0.00,,,0.12,,2013-02-15 11:01:00,
2013-02-15 06:11:00,33.0,25.0,29.95,South,169,1.0,3.0,71,0.00,,,0.12,,2013-02-15 11:11:00,
2013-02-15 06:23:00,34.0,25.0,29.96,South,169,2.0,5.0,69,0.00,,,0.12,,2013-02-15 11:23:00,
2013-02-15 06:32:00,35.0,25.0,29.96,South,169,1.0,4.0,67,0.00,,,0.12,,2013-02-15 11:32:00,
2013-02-15 06:42:00,35.0,25.0,29.96,South,169,1.0,4.0,67,0.00,,,0.12,,2013-02-15 11:42:00,
2013-02-15 06:52:00,35.0,25.0,29.97,South,169,1.0,3.0,67,0.00,,,0.12,,2013-02-15 11:52:00,
2013-02-15 07:02:00,35.0,25.0,29.97,South,169,1.0,3.0,66,0.00,,,0.12,,2013-02-15 12:02:00,
2013-02-15 07:11:00,35.0,25.0,29.97,South,169,1.0,3.0,66,0.00,,,0.12,,2013-02-15 12:11:00,
2013-02-15 07:21:00,35.0,24.0,29.98,South,169,0.0,3.0,65,0.00,,,0.12,,2013-02-15 12:21:00,
2013-02-15 07:32:00,35.0,24.0,29.98,South,169,0.0,2.0,65,0.00,,,0.12,,2013-02-15 12:32:00,
2013-02-15 07:42:00,35.0,24.0,29.98,South,169,0.0,2.0,65,0.00,,,0.12,,2013-02-15 12:42:00,
2013-02-15 07:52:00,36.0,25.0,29.98,South,170,0.0,1.0,65,0.00,,,0.12,,2013-02-15 12:52:00,
2013-02-15 08:02:00,37.0,26.0,29.98,South,170,0.0,2.0,64,0.00,,,0.12,,2013-02-15 13:02:00,
2013-02-15 08:11:00,37.0,26.0,29.98,South,170,0.0,2.0,64,0.00,,,0.12,,2013-02-15 13:11:00,
2013-02-15 08:22:00,37.0,26.0,29.99,South,170,1.0,3.0,63,0.00,,,0.12,,2013-02-15 13:22:00,
2013-02-15 08:32:00,38.0,27.0,30.00,South,178,1.0,5.0,63,0.00,,,0.12,,2013-02-15 13:32:00,
2013-02-15 08:42:00,38.0,27.0,30.00,South,178,1.0,5.0,63,0.00,,,0.12,,2013-02-15 13:42:00,
2013-02-15 08:52:00,39.0,27.0,30.00,SSW,209,2.0,5.0,63,0.00,,,0.12,,2013-02-15 13:52:00,
2013-02-15 09:01:00,40.0,28.0,30.00,SSW,203,1.0,6.0,62,0.00,,,0.12,,2013-02-15 14:01:00,
2013-02-15 09:12:00,40.0,28.0,30.00,SSW,203,1.0,6.0,62,0.00,,,0.12,,2013-02-15 14:12:00,
2013-02-15 09:21:00,41.0,27.0,30.00,SSW,207,3.0,6.0,58,0.00,,,0.09,,2013-02-15 14:21:00,
2013-02-15 09:32:00,43.0,29.0,30.00,SSW,209,2.0,5.0,58,0.00,,,0.09,,2013-02-15 14:32:00,
2013-02-15 09:42:00,43.0,29.0,30.00,SSW,209,2.0,5.0,58,0.00,,,0.09,,2013-02-15 14:42:00,
2013-02-15 09:52:00,45.0,31.0,30.00,SW,217,2.0,6.0,58,0.00,,,0.09,,2013-02-15 14:52:00,
2013-02-15 10:02:00,45.0,30.0,30.01,WSW,250,2.0,5.0,56,0.00,,,0.09,,2013-02-15 15:02:00,
2013-02-15 10:11:00,45.0,30.0,30.01,WSW,250,2.0,5.0,56,0.00,,,0.09,,2013-02-15 15:11:00,
2013-02-15 10:21:00,46.0,32.0,30.00,SSW,212,3.0,7.0,58,0.00,,,0.04,,2013-02-15 15:21:00,
2013-02-15 10:32:00,47.0,33.0,29.99,SW,218,1.0,4.0,57,0.00,,,0.04,,2013-02-15 15:32:00,
2013-02-15 10:42:00,47.0,34.0,29.99,WSW,240,1.0,5.0,60,0.00,,,0.04,,2013-02-15 15:42:00,
2013-02-15 10:52:00,47.0,34.0,29.99,WSW,240,1.0,5.0,60,0.00,,,0.04,,2013-02-15 15:52:00,
2013-02-15 11:02:00,48.0,33.0,29.99,West,263,2.0,7.0,55,0.00,,,0.04,,2013-02-15 16:02:00,
2013-02-15 11:11:00,48.0,33.0,29.99,West,263,2.0,7.0,55,0.00,,,0.04,,2013-02-15 16:11:00,
2013-02-15 11:22:00,49.0,34.0,29.98,NW,306,4.0,6.0,56,0.00,,,0.00,,2013-02-15 16:22:00,
2013-02-15 11:32:00,49.0,34.0,29.98,SW,217,4.0,8.0,56,0.00,,,0.00,,2013-02-15 16:32:00,
2013-02-15 11:42:00,49.0,34.0,29.98,SW,217,4.0,8.0,56,0.00,,,0.00,,2013-02-15 16:42:00,
2013-02-15 11:52:00,50.0,35.0,29.97,West,281,7.0,10.0,56,0.00,,,0.00,,2013-02-15 16:52:00,
2013-02-15 12:01:00,50.0,33.0,29.97,NW,310,7.0,10.0,52,0.00,,,0.00,,2013-02-15 17:01:00,
2013-02-15 12:11:00,50.0,34.0,29.96,WNW,283,6.0,11.0,54,0.00,,,0.00,,2013-02-15 17:11:00,
2013-02-15 12:21:00,50.0,34.0,29.96,WNW,283,6.0,11.0,54,0.00,,,0.00,,2013-02-15 17:21:00,
2013-02-15 12:32:00,50.0,34.0,29.96,NW,306,4.0,7.0,54,0.00,,,0.00,,2013-02-15 17:32:00,
2013-02-15 12:42:00,50.0,34.0,29.96,NW,306,4.0,7.0,54,0.00,,,0.00,,2013-02-15 17:42:00,
2013-02-15 12:52:00,50.0,34.0,29.95,WNW,290,5.0,12.0,53,0.00,,,0.00,,2013-02-15 17:52:00,
2013-02-15 13:01:00,50.0,34.0,29.95,WNW,300,3.0,9.0,53,0.00,,,0.00,,2013-02-15 18:01:00,
2013-02-15 13:11:00,50.0,34.0,29.95,WNW,300,3.0,9.0,53,0.00,,,0.00,,2013-02-15 18:11:00,
2013-02-15 13:21:00,52.0,34.0,29.94,NW,311,7.0,9.0,50,0.00,,,0.00,,2013-02-15 18:21:00,
2013-02-15 13:32:00,51.0,32.0,29.94,WNW,286,2.0,8.0,48,0.00,,,0.00,,2013-02-15 18:32:00,
2013-02-15 13:42:00,51.0,32.0,29.94,WNW,286,2.0,8.0,48,0.00,,,0.00,,2013-02-15 18:42:00,
2013-02-15 13:53:00,50.0,31.0,29.93,West,280,5.0,9.0,47,0.00,,,0.00,,2013-02-15 18:53:00,
2013-02-15 14:01:00,50.0,32.0,29.93,West,267,2.0,4.0,49,0.00,,,0.00,,2013-02-15 19:01:00,
2013-02-15 14:11:00,50.0,32.0,29.93,West,267,2.0,4.0,49,0.00,,,0.00,,2013-02-15 19:11:00,
2013-02-15 14:22:00,50.0,32.0,29.93,West,268,2.0,4.0,49,0.00,,,0.00,,2013-02-15 19:22:00,
2013-02-15 14:32:00,49.0,32.0,29.92,WNW,296,3.0,5.0,51,0.00,,,0.00,,2013-02-15 19:32:00,
2013-02-15 14:42:00,49.0,32.0,29.92,WNW,296,3.0,5.0,51,0.00,,,0.00,,2013-02-15 19:42:00,
2013-02-15 14:52:00,49.0,32.0,29.92,NW,326,4.0,9.0,52,0.00,,,0.00,,2013-02-15 19:52:00,
2013-02-15 15:01:00,49.0,33.0,29.92,WNW,297,2.0,5.0,54,0.00,,,0.00,,2013-02-15 20:01:00,
2013-02-15 15:11:00,49.0,33.0,29.92,WNW,297,2.0,5.0,54,0.00,,,0.00,,2013-02-15 20:11:00,
2013-02-15 15:21:00,48.0,33.0,29.92,NNW,338,1.0,11.0,55,0.00,,,0.00,,2013-02-15 20:21:00,
2013-02-15 15:32:00,47.0,34.0,29.92,NNW,334,8.0,11.0,60,0.00,,,0.00,,2013-02-15 20:32:00,
2013-02-15 15:42:00,47.0,34.0,29.92,NNW,334,8.0,11.0,60,0.00,,,0.00,,2013-02-15 20:42:00,
2013-02-15 15:52:00,46.0,34.0,29.93,NW,325,6.0,12.0,62,0.00,,,0.00,,2013-02-15 20:52:00,
2013-02-15 16:02:00,45.0,33.0,29.94,NW,319,10.0,15.0,63,0.00,,,0.00,,2013-02-15 21:02:00,
2013-02-15 16:11:00,45.0,33.0,29.94,NW,319,10.0,15.0,63,0.00,,,0.00,,2013-02-15 21:11:00,
2013-02-15 16:22:00,43.0,33.0,29.95,NW,308,9.0,15.0,68,0.01,,,0.01,,2013-02-15 21:22:00,
2013-02-15 16:32:00,42.0,34.0,29.96,NW,325,8.0,14.0,72,0.01,,,0.01,,2013-02-15 21:32:00,
2013-02-15 16:42:00,42.0,34.0,29.96,NW,325,8.0,14.0,72,0.01,,,0.01,,2013-02-15 21:42:00,
2013-02-15 16:52:00,41.0,33.0,29.96,NNW,327,2.0,5.0,73,0.01,,,0.01,,2013-02-15 21:52:00,
2013-02-15 17:02:00,41.0,33.0,29.96,NNW,327,1.0,7.0,73,0.02,,,0.02,,2013-02-15 22:02:00,
2013-02-15 17:11:00,41.0,33.0,29.96,NNW,327,1.0,7.0,73,0.02,,,0.02,,2013-02-15 22:11:00,
2013-02-15 17:22:00,41.0,33.0,29.96,NNW,327,2.0,3.0,74,0.02,,,0.03,,2013-02-15 22:22:00,
2013-02-15 17:32:00,41.0,33.0,29.96,NNW,333,5.0,8.0,73,0.03,,,0.04,,2013-02-15 22:32:00,
2013-02-15 17:42:00,41.0,33.0,29.96,NNW,333,5.0,8.0,73,0.03,,,0.04,,2013-02-15 22:42:00,
2013-02-15 17:52:00,40.0,33.0,29.96,NNW,333,0.0,3.0,75,0.03,,,0.04,,2013-02-15 22:52:00,
2013-02-15 18:02:00,40.0,33.0,29.96,NNW,333,1.0,4.0,76,0.02,,,0.04,,2013-02-15 23:02:00,
2013-02-15 18:11:00,40.0,33.0,29.96,NNW,333,1.0,4.0,76,0.02,,,0.04,,2013-02-15 23:11:00,
2013-02-15 18:21:00,40.0,33.0,29.96,NNW,333,1.0,4.0,77,0.03,,,0.06,,2013-02-15 23:21:00,
2013-02-15 18:32:00,39.0,33.0,29.96,NNW,333,2.0,4.0,78,0.03,,,0.07,,2013-02-15 23:32:00,
2013-02-15 18:42:00,39.0,33.0,29.96,NNW,333,2.0,4.0,78,0.03,,,0.07,,2013-02-15 23:42:00,
2013-02-15 18:52:00,39.0,32.0,29.96,NNW,333,1.0,4.0,77,0.04,,,0.08,,2013-02-15 23:52:00,
2013-02-15 19:02:00,39.0,32.0,29.96,NNW,333,0.0,0.0,77,0.05,,,0.09,,2013-02-16 00:02:00,
2013-02-15 19:11:00,39.0,32.0,29.96,NNW,333,0.0,0.0,77,0.05,,,0.09,,2013-02-16 00:11:00,
2013-02-15 19:22:00,39.0,33.0,29.97,NNW,333,1.0,3.0,78,0.04,,,0.10,,2013-02-16 00:22:00,
2013-02-15 19:32:00,39.0,33.0,29.98,NNW,333,0.0,1.0,79,0.03,,,0.10,,2013-02-16 00:32:00,
2013-02-15 19:42:00,39.0,33.0,29.98,NNW,333,0.0,1.0,79,0.03,,,0.10,,2013-02-16 00:42:00,
2013-02-15 19:52:00,38.0,32.0,29.98,NNW,333,0.0,0.0,79,0.03,,,0.11,,2013-02-16 00:52:00,
2013-02-15 20:02:00,38.0,32.0,29.97,NNW,333,0.0,0.0,80,0.02,,,0.11,,2013-02-16 01:02:00,
2013-02-15 20:11:00,38.0,32.0,29.97,NNW,333,0.0,0.0,80,0.02,,,0.11,,2013-02-16 01:11:00,
2013-02-15 20:21:00,38.0,32.0,29.97,NNW,333,0.0,2.0,80,0.01,,,0.11,,2013-02-16 01:21:00,
2013-02-15 20:32:00,38.0,32.0,29.97,NNW,333,0.0,1.0,80,0.01,,,0.11,,2013-02-16 01:32:00,
2013-02-15 20:42:00,38.0,32.0,29.97,NNW,333,0.0,1.0,80,0.01,,,0.11,,2013-02-16 01:42:00,
2013-02-15 20:52:00,38.0,32.0,29.98,NNW,333,0.0,0.0,80,0.00,,,0.11,,2013-02-16 01:52:00,
2013-02-15 21:01:00,38.0,33.0,29.98,NNW,333,0.0,1.0,81,0.01,,,0.12,,2013-02-16 02:01:00,
2013-02-15 21:11:00,38.0,33.0,29.98,NNW,333,0.0,1.0,81,0.01,,,0.12,,2013-02-16 02:11:00,
2013-02-15 21:21:00,38.0,33.0,29.98,NNW,333,1.0,2.0,81,0.01,,,0.12,,2013-02-16 02:21:00,
2013-02-15 21:32:00,38.0,33.0,29.98,NNW,333,0.0,1.0,81,0.01,,,0.12,,2013-02-16 02:32:00,
2013-02-15 21:42:00,38.0,33.0,29.98,NNW,333,0.0,1.0,81,0.01,,,0.12,,2013-02-16 02:42:00,
2013-02-15 21:52:00,38.0,33.0,29.98,NNW,333,1.0,2.0,81,0.01,,,0.12,,2013-02-16 02:52:00,
2013-02-15 22:02:00,38.0,33.0,29.98,NNW,333,0.0,2.0,81,0.00,,,0.12,,2013-02-16 03:02:00,
2013-02-15 22:11:00,38.0,33.0,29.98,NNW,333,0.0,2.0,81,0.00,,,0.12,,2013-02-16 03:11:00,
2013-02-15 22:21:00,38.0,33.0,29.98,NNW,333,0.0,2.0,81,0.00,,,0.12,,2013-02-16 03:21:00,
2013-02-15 22:32:00,37.0,32.0,29.98,NNW,333,1.0,2.0,81,0.00,,,0.12,,2013-02-16 03:32:00,
2013-02-15 22:42:00,37.0,32.0,29.98,NNW,333,1.0,2.0,81,0.00,,,0.12,,2013-02-16 03:42:00,
2013-02-15 22:52:00,37.0,32.0,29.98,NNW,333,0.0,2.0,81,0.00,,,0.12,,2013-02-16 03:52:00,
2013-02-15 23:01:00,37.0,32.0,29.98,NNW,333,1.0,3.0,81,0.00,,,0.12,,2013-02-16 04:01:00,
2013-02-15 23:11:00,37.0,32.0,29.98,NNW,333,1.0,2.0,81,0.00,,,0.12,,2013-02-16 04:11:00,
2013-02-15 23:21:00,37.0,32.0,29.98,NNW,333,1.0,2.0,81,0.00,,,0.12,,2013-02-16 04:21:00,
2013-02-15 23:32:00,37.0,32.0,29.98,NNW,333,1.0,3.0,81,0.00,,,0.12,,2013-02-16 04:32:00,
2013-02-15 23:42:00,37.0,32.0,29.98,NNW,333,1.0,3.0,81,0.00,,,0.12,,2013-02-16 04:42:00,
2013-02-15 23:52:00,36.0,30.0,29.97,NNW,333,0.0,1.0,80,0.00,,,0.12,,2013-02-16 04:52:00,